Weather History for KAXN - December, 2013

Change the Weather History Date:

Sunday, December 15, 2013

  Actual Average Record
Temperature  
Mean Temperature -3 °F -  
Max Temperature 1 °F 23 °F 46 °F (1959)
Min Temperature -6 °F 7 °F -20 °F (1961)
Degree Days  
Heating Degree Days 68    
Moisture  
Dew Point -10 °F    
Average Humidity 70    
Maximum Humidity 80    
Minimum Humidity 62    
Precipitation  
Precipitation 0.00 in - - ()
Sea Level Pressure  
Sea Level Pressure 30.19 in    
Wind  
Wind Speed 7 mph (NE)    
Max Wind Speed 10 mph    
Max Gust Speed -    
Visibility 10 miles    
Events      
Averages and records for this station are not official NWS values.
T = Trace of Precipitation, MM = Missing Value Source: NWS Daily Summary

Daily Weather History Graph

Daily Weather History Graph

Search for Another Location

Airport or City:

Trip Planner

Search our weather history database for the weather conditions in past years. The results will help you decide how hot, cold, wet, or windy it might be!

Date:

Astronomy

Dec. 15, 2013 Rise Set
Actual Time 7:56 AM CST 4:37 PM CST
Civil Twilight 7:21 AM CST 5:11 PM CST
Nautical Twilight 6:44 AM CST 5:49 PM CST
Astronomical Twilight 6:07 AM CST 6:26 PM CST
Moon 3:45 PM CST (12/15) 6:09 AM CST (12/15)
Length of Visible Light 9h 49m
Length of Day
8h 40m
Waxing Gibbous, 98% of the Moon is Illuminated
Dec 15
Waxing Gibbous
Dec 17
Full
Dec 25
Last Quarter
Jan 1
New
Jan 7
First Quarter

Hourly Weather History & Observations

Time (CST) Temp. Windchill Dew Point Humidity Pressure Visibility Wind Dir Wind Speed Gust Speed Precip Events Conditions
12:53 AM -6.0 °F -23.6 °F -11.9 °F 75% 30.21 in 10.0 mi North 10.4 mph - N/A   Overcast
1:53 AM -5.1 °F -21.5 °F -11.0 °F 76% 30.22 in 10.0 mi NW 9.2 mph - N/A   Overcast
2:53 AM -5.1 °F -17.6 °F -11.0 °F 76% 30.22 in 10.0 mi NNW 5.8 mph - N/A   Overcast
3:53 AM -4.0 °F -17.8 °F -9.9 °F 76% 30.23 in 10.0 mi NW 6.9 mph - N/A   Overcast
4:53 AM -4.0 °F -14.6 °F -9.9 °F 76% 30.22 in 10.0 mi NNW 4.6 mph - N/A   Overcast
5:53 AM -4.0 °F -16.3 °F -9.9 °F 76% 30.22 in 10.0 mi NW 5.8 mph - N/A   Overcast
6:53 AM -5.1 °F -17.6 °F -11.0 °F 76% 30.22 in 10.0 mi NW 5.8 mph - N/A   Overcast
7:53 AM -5.1 °F -19.1 °F -9.9 °F 80% 30.22 in 10.0 mi North 6.9 mph - N/A   Overcast
8:53 AM -4.0 °F -17.8 °F -11.0 °F 72% 30.23 in 10.0 mi NNW 6.9 mph - N/A   Overcast
9:53 AM -4.0 °F -16.3 °F -11.0 °F 72% 30.23 in 10.0 mi North 5.8 mph - N/A   Overcast
10:53 AM -2.9 °F -13.3 °F -11.0 °F 68% 30.24 in 10.0 mi North 4.6 mph - N/A   Clear
11:53 AM -0.9 °F -11.0 °F -9.9 °F 66% 30.21 in 10.0 mi North 4.6 mph - N/A   Overcast
12:53 PM -0.9 °F -12.7 °F -9.9 °F 66% 30.18 in 10.0 mi East 5.8 mph - N/A   Overcast
1:53 PM -0.9 °F -11.0 °F -11.0 °F 62% 30.17 in 10.0 mi ENE 4.6 mph - N/A   Partly Cloudy
2:53 PM -2.0 °F -10.1 °F -11.9 °F 63% 30.17 in 10.0 mi East 3.5 mph - N/A   Clear
3:53 PM -2.0 °F -10.1 °F -11.9 °F 63% 30.17 in 10.0 mi East 3.5 mph - N/A   Mostly Cloudy
4:53 PM -2.0 °F -13.9 °F -11.9 °F 63% 30.18 in 10.0 mi ESE 5.8 mph - N/A   Overcast
5:53 PM -2.0 °F -13.9 °F -11.9 °F 63% 30.18 in 10.0 mi ESE 5.8 mph - N/A   Overcast
6:53 PM -2.0 °F -16.6 °F -9.9 °F 69% 30.17 in 8.0 mi SSE 8.1 mph - 0.00 in   Overcast
7:53 PM -0.9 °F -12.7 °F -8.0 °F 72% 30.17 in 9.0 mi ESE 5.8 mph - N/A   Overcast
8:53 PM -0.0 °F -11.6 °F -8.0 °F 69% 30.17 in 10.0 mi SE 5.8 mph - 0.00 in   Overcast
9:53 PM -0.0 °F -16.3 °F -7.1 °F 72% 30.15 in 10.0 mi SE 10.4 mph - N/A   Overcast
10:53 PM -0.0 °F -16.3 °F -8.0 °F 69% 30.14 in 10.0 mi SE 10.4 mph - N/A   Overcast
11:53 PM 1.0 °F -14.9 °F -7.1 °F 69% 30.12 in 10.0 mi SE 10.4 mph - N/A   Overcast